Wind_Speed
74 79 77 77 84 84 86 90 89 90 92 89 92 93 94 95 102 107 108 118 125 120 124 137 142 132 105 89 80 72 56 65 67 64 64 66 62 61
76 74 70 77 80 83 87 95 98 97 91 88 91 94 100 108 104 108 107 120 127 133 135 132 128 106 80 72 67 58 57 64 69 66 66 65 68 69
84 86 84 80 75 76 77 78 88 99 106 104 108 110 106 112 119 122 123 141 132 139 127 119 100 72 70 63 62 59 53 76 74 70 71 75 77 77
86 92 93 89 90 83 82 85 91 99 102 103 105 99 105 115 134 139 136 139 136 128 111 97 77 62 69 64 64 67 66 75 73 72 76 82 84 83
88 92 94 94 94 97 94 93 105 106 100 106 105 110 119 129 149 146 138 134 120 92 86 76 69 66 63 68 64 71 75 76 79 77 81 83 83 84
93 96 83 85 94 95 97 104 102 116 110 110 121 117 130 151 153 148 129 112 96 86 72 73 67 63 66 73 75 77 69 71 76 78 79 80 78 78
102 102 90 89 93 94 99 103 105 112 118 120 119 140 151 151 158 132 105 90 80 69 71 66 64 71 72 73 78 73 74 75 79 81 80 77 75 70
107 98 97 95 103 100 103 107 111 121 128 139 138 143 160 163 141 107 88 82 59 71 71 69 70 79 78 79 75 74 75 77 81 78 76 72 65 64
106 107 106 103 110 110 111 118 127 129 137 147 154 154 158 136 107 94 81 66 64 71 73 75 75 78 75 69 73 73 75 77 75 73 68 65 62 55
112 114 117 117 118 127 125 131 149 154 155 157 148 138 119 102 94 86 72 58 64 67 70 67 66 66 63 64 68 69 73 67 69 65 62 60 53 52
120 127 120 121 124 131 139 145 150 159 147 134 117 103 94 86 81 74 61 57 55 61 60 57 55 54 59 60 63 68 63 68 66 60 57 51 49 47
130 131 141 139 146 154 156 149 121 114 103 95 93 88 86 78 75 71 58 56 55 57 53 50 48 49 54 58 63 61 62 63 59 53 48 45 44 42
138 144 148 152 150 139 121 107 94 90 88 87 87 85 79 69 72 69 58 53 55 54 47 44 44 49 55 60 56 57 60 56 52 48 44 41 41 39
147 150 152 144 130 111 101 96 89 85 79 75 75 75 69 63 67 68 54 52 55 54 45 42 49 50 55 55 51 54 53 50 47 44 41 40 39 38
152 146 129 122 112 107 98 88 79 72 69 70 70 68 64 64 68 64 57 53 53 50 50 49 48 52 54 46 52 51 48 47 43 39 38 38 37 37
141 126 115 108 103 92 83 76 72 68 65 63 62 60 61 63 64 63 55 53 51 52 52 49 51 51 47 47 50 49 47 45 39 37 37 37 35 34
119 107 104 93 88 80 73 71 64 58 56 54 53 54 55 57 61 59 50 50 49 51 51 50 54 49 43 50 50 46 44 41 38 36 37 38 37 35
106 93 91 86 78 71 67 64 57 56 55 53 49 50 52 56 58 55 49 46 48 53 53 53 52 41 46 49 46 42 40 38 35 35 36 38 38 36
93 88 80 77 71 63 61 58 52 51 50 48 46 50 52 55 56 51 42 44 46 50 52 52 47 46 45 42 41 37 35 35 35 35 37 38 37 36
82 80 74 70 63 59 54 52 49 48 47 45 47 48 52 59 55 48 39 40 43 44 48 49 40 40 41 40 36 33 31 31 32 33 34 35 34 34
76 74 67 61 57 52 50 47 46 45 44 45 47 48 56 58 53 46 42 42 41 43 46 41 39 43 42 34 26 22 19 22 24 27 29 30 31 33
69 65 58 55 52 49 45 44 43 40 40 44 47 53 57 54 51 43 40 39 40 44 44 41 44 42 34 30 23 18 20 23 28 32 35 33 33 34
62 58 51 49 46 44 41 40 38 38 40 46 48 53 54 54 48 41 36 39 42 46 42 43 47 47 37 27 23 21 23 25 26 29 30 34 37 35
Wind_Direction
307 306 304 299 300 299 298 302 310 310 305 308 309 310 310 305 305 306 303 306 308 304 307 304 305 307 301 295 292 290 285 285 285 286 282 283 281 277
306 306 304 298 293 294 293 293 297 305 311 302 303 304 311 313 309 309 304 301 302 302 303 302 304 301 289 289 286 281 281 282 285 280 281 281 281 279
306 304 303 301 298 295 296 302 295 293 298 304 300 305 308 311 310 303 299 300 302 302 301 301 302 292 290 287 287 283 284 281 278 280 280 280 278 275
302 305 298 298 299 300 298 300 303 303 300 304 303 296 297 302 307 307 303 297 302 300 303 303 296 286 283 283 279 278 279 282 282 279 280 280 279 279
308 309 293 289 294 297 301 298 299 301 302 301 298 301 295 297 308 306 303 300 301 302 303 297 291 284 282 280 283 281 280 279 282 278 276 279 281 283
305 306 308 297 292 297 296 299 296 300 298 298 300 300 300 304 305 307 305 303 300 300 297 289 286 281 280 281 283 289 283 279 278 278 283 288 288 287
306 306 308 303 301 301 300 298 296 299 301 297 295 302 303 303 305 303 299 297 297 291 289 288 285 282 279 278 282 280 279 281 282 286 290 289 290 291
304 309 310 300 302 301 300 302 300 295 294 297 295 294 300 303 301 295 294 293 286 278 284 282 278 278 282 278 279 279 282 284 285 291 293 296 297 297
313 312 312 307 305 304 299 302 300 296 294 296 297 296 296 296 293 292 292 286 274 271 278 277 275 279 277 277 281 283 283 285 293 293 297 301 301 299
310 312 309 306 303 302 299 294 298 300 294 295 296 295 293 291 288 288 287 276 269 273 272 278 278 278 277 276 280 284 287 294 295 298 300 301 299 300
307 308 302 297 294 296 295 297 294 290 295 294 292 291 289 287 283 282 279 277 273 273 276 276 272 274 275 278 281 285 294 296 294 299 299 298 298 300
305 301 302 299 298 300 298 297 295 293 290 288 287 286 284 284 281 279 276 276 273 278 277 273 274 275 277 281 285 292 296 295 298 300 297 298 298 299
301 300 300 299 301 301 297 296 293 290 288 285 283 281 280 280 275 275 275 275 273 280 276 269 274 278 278 282 293 295 294 295 299 298 297 299 300 300
301 301 300 300 302 298 296 293 291 289 286 282 278 276 277 272 266 271 274 268 272 276 273 267 273 277 279 291 298 293 293 298 298 295 298 299 299 299
301 301 300 300 297 296 294 293 290 287 281 275 273 271 268 263 264 267 270 266 271 269 267 269 276 278 287 296 298 295 296 297 294 293 296 296 299 298
301 300 298 297 295 295 293 290 287 283 278 273 268 265 262 259 257 259 264 263 265 261 265 273 275 283 290 300 293 297 297 294 290 293 297 298 299 299
298 297 296 294 293 292 291 286 284 279 274 269 265 259 257 255 253 255 258 261 256 255 262 268 274 284 295 297 295 297 295 289 289 292 295 297 297 298
296 295 293 292 292 291 287 282 279 274 269 266 261 254 249 247 248 253 261 256 250 254 260 267 276 285 298 297 295 298 289 286 290 294 295 296 295 297
293 293 292 291 291 288 283 280 274 268 264 261 253 246 244 242 245 254 257 248 249 256 261 268 280 291 302 294 298 291 286 286 288 293 297 297 296 296
295 293 291 291 289 284 280 274 269 263 257 251 243 242 237 237 242 248 244 240 248 256 264 273 290 299 300 294 289 284 284 289 297 300 300 301 304 305
292 291 291 288 284 280 275 269 262 254 248 242 236 233 230 236 240 242 240 239 247 256 266 280 293 298 300 293 284 282 292 304 311 314 313 317 320 317
291 289 288 284 279 274 268 262 256 248 239 232 229 226 229 232 236 237 234 236 246 255 272 282 291 301 302 293 288 300 310 324 325 322 320 317 318 316
288 286 284 278 273 267 261 255 249 241 230 223 222 222 228 229 235 234 228 235 247 257 269 281 292 294 300 310 308 318 321 316 317 317 320 317 317 318
Height
10657 10650 10644 10635 10628 10620 10615 10603 10593 10589 10587 10579 10569 10561 10550 10543 10534 10525 10512 10499 10500 10486 10482 10471 10453 10436 10427 10424 10418 10416 10413 10413 10411 10408 10406 10404 10402 10402
10641 10633 10624 10616 10609 10601 10594 10586 10578 10567 10562 10556 10547 10537 10527 10522 10513 10506 10498 10491 10480 10462 10459 10447 10428 10419 10409 10405 10400 10398 10397 10396 10394 10391 10389 10386 10383 10382
10622 10615 10606 10599 10591 10583 10573 10565 10556 10549 10544 10535 10525 10516 10507 10503 10492 10482 10478 10466 10452 10438 10424 10420 10407 10397 10393 10388 10384 10383 10380 10379 10376 10374 10370 10366 10363 10361
10604 10596 10587 10579 10570 10562 10553 10544 10535 10525 10517 10508 10502 10493 10488 10480 10469 10453 10440 10432 10420 10409 10393 10389 10386 10382 10377 10371 10368 10365 10363 10361 10357 10352 10348 10344 10340 10337
10582 10574 10563 10554 10546 10537 10531 10522 10513 10504 10494 10484 10477 10468 10459 10452 10442 10427 10409 10400 10389 10380 10372 10371 10368 10365 10358 10354 10350 10348 10344 10340 10336 10331 10326 10322 10318 10314
10560 10552 10541 10532 10524 10513 10505 10498 10486 10479 10469 10458 10451 10442 10433 10421 10410 10392 10376 10371 10364 10359 10355 10353 10351 10347 10342 10335 10332 10331 10324 10319 10315 10310 10305 10300 10293 10286
10538 10528 10515 10505 10497 10487 10480 10473 10464 10453 10445 10436 10428 10416 10401 10388 10378 10366 10352 10349 10342 10341 10338 10335 10333 10328 10323 10318 10317 10311 10306 10302 10295 10291 10285 10278 10270 10263
10513 10499 10487 10478 10469 10459 10450 10445 10438 10426 10415 10406 10398 10385 10372 10356 10351 10341 10335 10329 10325 10322 10318 10317 10314 10307 10306 10303 10300 10295 10290 10285 10278 10273 10266 10256 10247 10240
10479 10468 10460 10450 10441 10432 10424 10416 10408 10399 10386 10369 10360 10355 10345 10330 10321 10316 10314 10312 10309 10305 10304 10298 10295 10292 10290 10288 10283 10279 10273 10269 10264 10255 10246 10237 10228 10220
10449 10438 10433 10426 10415 10409 10399 10389 10378 10360 10346 10330 10322 10315 10304 10300 10295 10294 10295 10293 10290 10291 10286 10281 10282 10279 10275 10272 10267 10263 10259 10254 10246 10237 10228 10221 10214 10208
10421 10416 10409 10400 10389 10380 10365 10350 10337 10321 10307 10296 10287 10280 10276 10276 10274 10273 10275 10275 10273 10273 10269 10269 10265 10264 10260 10258 10253 10249 10246 10238 10230 10223 10215 10208 10201 10196
10400 10384 10371 10364 10349 10332 10318 10302 10285 10279 10267 10262 10258 10256 10253 10253 10251 10251 10257 10257 10255 10255 10253 10253 10250 10250 10247 10245 10241 10237 10231 10223 10215 10208 10201 10194 10190 10185
10364 10348 10330 10318 10305 10286 10270 10262 10254 10248 10243 10234 10232 10229 10230 10234 10231 10233 10240 10239 10236 10238 10240 10238 10237 10237 10235 10231 10229 10224 10215 10209 10202 10195 10188 10183 10179 10175
10325 10306 10289 10272 10258 10245 10237 10230 10222 10221 10214 10209 10206 10206 10211 10213 10212 10215 10225 10223 10223 10223 10225 10225 10224 10225 10222 10219 10216 10210 10203 10195 10190 10184 10178 10174 10171 10167
10279 10265 10247 10231 10220 10214 10206 10200 10196 10193 10191 10187 10186 10188 10192 10194 10195 10202 10207 10208 10209 10211 10212 10213 10212 10212 10209 10207 10204 10196 10190 10184 10180 10174 10170 10167 10164 10161
10237 10229 10214 10199 10191 10185 10179 10172 10170 10167 10166 10165 10165 10167 10172 10178 10182 10187 10192 10194 10196 10198 10201 10200 10200 10200 10197 10195 10191 10184 10177 10172 10168 10165 10162 10159 10157 10153
10202 10195 10183 10170 10163 10159 10155 10148 10146 10144 10143 10145 10148 10151 10156 10162 10167 10173 10178 10181 10184 10188 10190 10190 10189 10188 10186 10183 10178 10171 10166 10162 10159 10157 10154 10152 10148 10145
10174 10162 10153 10142 10138 10135 10130 10127 10126 10123 10123 10126 10132 10135 10141 10146 10152 10159 10165 10170 10174 10177 10178 10179 10178 10177 10176 10170 10165 10160 10155 10153 10150 10147 10145 10143 10140 10136
10141 10133 10124 10118 10115 10113 10108 10105 10106 10105 10107 10111 10115 10120 10127 10134 10140 10147 10154 10161 10164 10167 10167 10168 10168 10168 10164 10159 10153 10148 10146 10142 10140 10138 10136 10132 10128 10124
10111 10106 10100 10096 10094 10091 10088 10087 10088 10089 10092 10095 10100 10107 10116 10122 10130 10137 10145 10150 10153 10156 10157 10157 10159 10156 10151 10147 10142 10138 10136 10134 10131 10129 10125 10120 10118 10114
10087 10081 10079 10076 10073 10072 10070 10072 10073 10075 10077 10081 10088 10096 10105 10112 10118 10128 10135 10139 10144 10146 10147 10147 10147 10145 10141 10136 10134 10131 10128 10125 10123 10121 10117 10113 10109 10105
10066 10061 10059 10056 10054 10054 10055 10055 10057 10061 10066 10069 10077 10086 10095 10102 10109 10119 10124 10130 10134 10136 10137 10138 10136 10136 10134 10130 10126 10124 10119 10117 10115 10112 10109 10106 10102 10098
10045 10041 10041 10038 10038 10037 10039 10040 10042 10047 10052 10057 10066 10077 10084 10092 10101 10108 10115 10121 10125 10127 10131 10131 10127 10124 10123 10120 10118 10115 10113 10111 10109 10106 10103 10099 10096 10092